DW2871 Weather Reports


Display with metric or nautical units.
time (UTC)temp
F
wind
direction
speed
MPH
gust
MPH
rain 1hr
in
rain 24hr
in
rain mn
in
humidity
%
barometer
mb
20260902161512 -90 316 0.0 0.0 0.00 0.02 0.00 1019.4
20260902160009 -90 307 0.0 0.0 0.00 0.02 0.00 1019.6
20260902154601 -90 294 0.0 0.0 0.00 0.02 0.00 1019.5
20260902153058 -90 309 0.0 0.0 0.00 0.02 0.00 1019.6
20260902151558 -90 288 0.0 0.0 0.00 0.02 0.00 1019.6
20260902150045 -90 318 0.0 0.0 0.00 0.02 0.00 1019.9
20260902144541 -90 283 0.0 0.0 0.00 0.02 0.00 1019.8
20260902143042 -90 277 0.0 0.0 0.00 0.02 0.00 1019.7
20260902141531 -90 282 0.0 0.0 0.00 0.02 0.00 1019.8
20260902140033 -90 282 0.0 0.0 0.00 0.02 0.02 1019.8
20260902134520 -90 291 0.0 0.0 0.00 0.02 0.02 1019.9
20260902133015 -90 288 0.0 0.0 0.00 0.02 0.02 1020.0
20260902131512 -90 360 0.0 0.0 0.00 0.02 0.02 1020.3
20260902130003 -90 302 0.0 0.0 0.00 0.02 0.02 1020.5
20260902124559 -90 302 0.0 0.0 0.00 0.02 0.02 1020.8
20260902123107 -90 247 0.0 0.0 0.00 0.02 0.02 1020.9
20260902121551 -90 276 0.0 0.0 0.00 0.02 0.02 1021.1
20260902120047 -90 274 0.0 0.0 0.00 0.02 0.02 1021.2
20260902114512 -90 276 0.0 0.0 0.00 0.02 0.02 1021.4
20260902113008 -90 273 0.0 0.0 0.00 0.02 0.02 1021.4
20260902111502 -90 292 0.0 0.0 0.00 0.02 0.02 1021.4
20260902110105 -90 279 0.0 0.0 0.00 0.04 0.02 1021.5
20260902104559 -90 278 0.0 0.0 0.00 0.04 0.02 1021.5
20260902103048 -90 301 0.0 0.0 0.00 0.04 0.02 1021.5
20260902101541 -90 291 0.0 0.0 0.00 0.04 0.02 1021.5
20260902100036 -90 297 0.0 0.0 0.00 0.04 0.02 1021.4
20260902094541 -90 298 0.0 0.0 0.00 0.04 0.02 1021.3
20260902093027 -90 254 0.0 0.0 0.00 0.04 0.02 1021.2
20260902091520 -90 217 0.0 0.0 0.00 0.04 0.02 1021.0
20260902090016 -90 249 0.0 0.0 0.00 0.04 0.02 1021.0
20260902084511 -90 277 0.0 0.0 0.00 0.04 0.02 1020.9
20260902083009 -90 250 0.0 0.0 0.00 0.04 0.02 1021.0
20260902081536 -90 254 0.0 0.0 0.00 0.04 0.02 1021.0
20260902080029 -90 360 0.0 0.0 0.00 0.04 0.02 1021.0
20260902074521 -90 293 0.0 0.0 0.00 0.04 0.02 1021.0
20260902073017 -90 294 0.0 0.0 0.00 0.04 0.02 1021.0
20260902071512 -90 269 0.0 0.0 0.00 0.04 0.02 1020.9
20260902070008 -90 262 0.0 0.0 0.00 0.04 0.02 1021.1
20260902064500 -90 288 0.0 0.0 0.00 0.04 0.02 1021.2
20260902063104 -90 252 0.0 0.0 0.00 0.04 0.02 1021.4
20260902061610 -90 273 0.0 0.0 0.00 0.04 0.02 1021.7
20260902060051 -90 276 0.0 0.0 0.00 0.04 0.02 1021.7
20260902054546 -90 275 0.0 0.0 0.00 0.04 0.02 1021.9
20260902053035 -90 296 0.0 0.0 0.00 0.04 0.02 1022.0
20260902051531 -90 265 0.0 0.0 0.00 0.04 0.02 1022.3
20260902050027 -90 269 0.0 0.0 0.00 0.04 0.02 1022.4
20260902044519 -90 286 0.0 0.0 0.00 0.04 0.02 1022.6
20260902043017 -90 265 0.0 0.0 0.00 0.04 0.02 1022.4
20260902041510 -90 242 0.0 0.0 0.00 0.04 0.02 1022.5
20260902040006 -90 267 0.0 0.0 0.00 0.04 0.02 1022.5
20260902034558 -90 296 0.0 0.0 0.00 0.04 0.02 1022.7
20260902033106 -90 242 0.0 0.0 0.00 0.04 0.02 1023.0
20260902031549 -90 301 0.0 0.0 0.00 0.04 0.02 1023.1
20260902030045 -90 290 0.0 0.0 0.00 0.04 0.02 1023.3
20260902024510 -90 307 0.0 0.0 0.00 0.04 0.02 1023.8
20260902023006 -90 293 0.0 0.0 0.00 0.04 0.02 1024.1
20260902021532 -90 245 0.0 0.0 0.00 0.04 0.02 1024.2
20260902020028 -90 270 0.0 0.0 0.00 0.04 0.02 1024.3
20260902014530 -90 281 0.0 0.0 0.00 0.04 0.02 1024.5
20260902013016 -90 283 0.0 0.0 0.00 0.04 0.02 1024.6
20260902011512 -90 269 0.0 0.0 0.00 0.04 0.02 1024.8
20260902010007 -90 273 0.0 0.0 0.00 0.04 0.02 1024.9
20260902004604 -90 275 0.0 0.0 0.00 0.04 0.02 1024.8
20260902003055 -90 304 0.0 0.0 0.00 0.04 0.02 1025.0
20260902001550 -90 290 0.0 0.0 0.00 0.04 0.02 1025.1
20260902000052 -90 255 0.0 0.0 0.00 0.04 0.02 1025.2
20260901234549 -90 265 0.0 0.0 0.00 0.04 0.02 1025.4
20260901233011 -90 298 0.0 0.0 0.00 0.04 0.02 1025.4
20260901231504 -90 265 0.0 0.0 0.00 0.04 0.02 1025.5
20260901230058 -90 280 0.0 0.0 0.00 0.04 0.02 1025.5
20260901224556 -90 281 0.0 0.0 0.00 0.04 0.02 1025.4
20260901223048 -90 290 0.0 0.0 0.00 0.04 0.02 1025.4
20260901221613 -90 252 0.0 0.0 0.00 0.04 0.02 1025.0
20260901220038 -90 266 0.0 0.0 0.00 0.04 0.02 1024.9
20260901214532 -90 277 0.0 0.0 0.00 0.04 0.02 1024.8
20260901213053 -90 256 0.0 0.0 0.00 0.04 0.02 1024.6
20260901211536 -90 268 0.0 0.0 0.00 0.04 0.02 1024.3
20260901210020 -90 257 0.0 0.0 0.00 0.04 0.02 1024.1
20260901204511 -90 284 0.0 0.0 0.00 0.04 0.02 1024.0
20260901203008 -90 278 0.0 0.0 0.00 0.04 0.02 1023.6
20260901201502 -90 284 0.0 0.0 0.00 0.04 0.02 1023.4
20260901200056 -90 275 0.0 0.0 0.00 0.04 0.02 1023.3
20260901194551 -90 284 0.0 0.0 0.00 0.04 0.02 1023.3
20260901193058 -90 268 0.0 0.0 0.00 0.04 0.02 1023.1
20260901191542 -90 228 0.0 0.0 0.00 0.04 0.02 1022.9
20260901190034 -90 227 0.0 0.0 0.00 0.04 0.02 1022.8
20260901184534 -90 227 0.0 0.0 0.01 0.04 0.02 1022.9
20260901183025 -90 217 0.0 0.0 0.01 0.04 0.02 1022.9
20260901181522 -90 227 0.0 0.0 0.01 0.04 0.02 1022.6
20260901180014 -90 204 0.0 0.0 0.01 0.04 0.02 1022.4
20260901174509 -90 242 0.0 0.0 0.01 0.03 0.02 1022.3
20260901173004 -90 243 0.0 0.0 0.01 0.03 0.02 1022.2
20260901171610 -90 244 0.0 0.0 0.01 0.03 0.02 1022.2
20260901170054 -90 244 0.0 0.0 0.01 0.03 0.02 1022.1
20260901164549 -90 250 0.0 0.0 0.00 0.02 0.01 1022.2
20260901163044 -90 248 0.0 0.0 0.00 0.02 0.01 1022.5